Regional Weather Roundup
Issued by NWS

Home | Current Version | Previous Version | Text Only | Print | Product List | Glossary Off
Versions: 1 2 3 4 5 6 7 8 9 10 11 12 13 14 15 16 17 18 19 20 21 22 23 24 25 26 27 28 29 30 31 32 33 34 35 36 37 38 39 40 41 42 43 44 45 46 47 48 49 50

000
ASUS43 KDTX 050201
RWRMI
MICHIGAN HOURLY REGIONAL WEATHER ROUNDUP
NATIONAL WEATHER SERVICE DETROIT/PONTIAC MI
1000 PM EDT MON MAY 04 2015

NOTE: "FAIR" INDICATES FEW OR NO CLOUDS BELOW 12,000 FEET WITH NO
SIGNIFICANT WEATHER AND/OR OBSTRUCTION TO VISIBILITY.

MIZ047>049-052>055-059>063-066>070-074>076-081>083-050300-
SOUTHEAST LOWER MICHIGAN

CITY           SKY/WX    TMP DP  RH WIND       PRES   REMARKS
ADRIAN         CLOUDY    65  60  84 SW5       30.17R
ALMA           PTCLDY    62  36  36 N10       30.19R
ANN ARBOR      CLOUDY    62  56  80 W3        30.16R
BAD AXE        PTCLDY    55  37  51 NE7       30.20R
CARO           PTCLDY    60  51  72 NE8       30.18R
DETROIT CITY   MOCLDY    66  60  81 CALM      30.16R
DETROIT        CLOUDY    69  61  75 S7        30.16R
FLINT          CLOUDY    68  58  70 W3        30.16R
GROSSE ILE     CLOUDY    66  61  82 S5        30.14S
HILLSDALE      MOCLDY    63  54  71 CALM      30.18R
HOWELL         MOCLDY    66  54  63 CALM      30.17R

CITY           SKY/WX    TMP DP  RH WIND       PRES   REMARKS
JACKSON        MOCLDY    65  54  67 NW3       30.18R
LAMBERTVILLE   CLOUDY    66  59  77 SW5       30.17R
LANSING        PTCLDY    66  53  63 W7        30.18R
LAPEER         MOCLDY    59  53  80 CALM      30.17R
MASON          PTCLDY    67  52  59 W3        30.17R
MONROE         CLOUDY    64  61  88 SW3       30.15R
PONTIAC        MOCLDY    64  54  69 CALM      30.16R
PORT HOPE        N/A     52  36  54 CALM      30.18R
PORT HURON     PTCLDY    57  54  88 NE12      30.19R
TRI CITIES     PTCLDY    62  46  55 N10       30.19R
MIDLAND        FAIR      61  33  34 N6        30.18R
TROY           MOCLDY    70  54  57 NE6       30.18R
SAGINAW HB     PTCLDY    61  46  59 N8        30.17R
$$
MIZ043>046-050>051-056>058-064>065-071>073-077>080-050300-
SOUTHWEST LOWER MICHIGAN

CITY           SKY/WX    TMP DP  RH WIND       PRES   REMARKS
BATTLE CREEK   MOCLDY    65  53  65 W3        30.19R
BENTON HARBOR  CLOUDY    55  51  86 CALM      30.19R
BIG RAPIDS     MOCLDY    59  31  34 N3        30.21R
COLDWATER      MOCLDY    60  53  77 W5        30.18R
FREMONT        FAIR      61  32  34 NE6       30.19R
HOLLAND        PTCLDY    53  43  68 CALM      30.19R
GRAND RAPIDS   MOCLDY    62  50  64 W6        30.17R
IONIA          MOCLDY    64  54  71 W6        30.17R
KALAMAZOO      MOCLDY    64  54  69 W5        30.19R
LUDINGTON      MOCLDY    58  31  35 NE5       30.21R
MARSHALL       MOCLDY    62  53  72 CALM      30.17R
MOUNT PLEASANT PTCLDY    60  32  34 NW5       30.19R
MUSKEGON       MOCLDY    64  36  35 N6        30.19R
SOUTH HAVEN    MOCLDY    54  49  83 CALM      30.19R
$$
MIZ016>042-050300-
NORTHERN LOWER MICHIGAN

CITY           SKY/WX    TMP DP  RH WIND       PRES   REMARKS
ALPENA         PTCLDY    52  37  56 NW9       30.23R
BEAVER ISLAND  PTCLDY    50  34  54 CALM      30.25R
BELLAIRE       MOCLDY    47  40  75 CALM      30.25R
CADILLAC       PTCLDY    52  35  52 N6        30.23R
CHARLEVOIX     MOCLDY    47  37  68 CALM      30.27R
FRANKFORT      MOCLDY    58  30  34 E6        30.23R
GRAYLING       PTCLDY    47  34  60 CALM      30.24R
HARBOR SPRINGS MOCLDY    41  34  76 CALM      30.24R
HOUGHTON LAKE  PTCLDY    52  37  56 W5        30.23R
MANISTEE       MOCLDY    54  30  40 E7        30.23R
OSCODA         PTCLDY    50  40  68 N3        30.19R
PELLSTON       PTCLDY    43  33  68 NW6       30.24R
ROGERS CITY    PTCLDY    49  38  64 NW8       30.24R
TRAVERSE CITY  MOCLDY    49  38  65 CALM      30.24R
$$
MIZ007>008-015-050300-
EASTERN UPPER MICHIGAN

CITY           SKY/WX    TMP DP  RH WIND       PRES   REMARKS
KINROSS        CLEAR     43  39  87 NW8       30.23R
MACKINAC ISLAN PTCLDY    49  36  61 NW9       30.23R
NEWBERRY       CLEAR     47  37  68 W9G16     30.24R
S. S. MARIE    PTCLDY    45  36  70 NW12      30.22R
MUNISING         N/A     45  37  73 S6        30.24R
$$
MIZ004>006-011>014-085-050300-
CENTRAL UPPER MICHIGAN

CITY           SKY/WX    TMP DP  RH WIND       PRES   REMARKS
MANISTIQUE     CLEAR     46  34  61 N7        30.24R
ESCANABA       PTCLDY    54  32  43 NE3       30.24R
MENOMINEE      MOCLDY    52  36  54 SE7       30.23R
SAWYER-GWINN   CLEAR     50  34  53 NE3       30.23R
$$
MIZ001>003-009>011-084-050300-
WESTERN UPPER MICHIGAN

CITY           SKY/WX    TMP DP  RH WIND       PRES   REMARKS
IRON MOUNTAIN  PTCLDY    56  36  47 E6        30.22R
HOUGHTON       CLEAR     54  32  43 CALM      30.22R
COPPER HARBOR    N/A     43  36  76 CALM      30.22R
IRONWOOD       PTCLDY    48  34  57 CALM      30.20R
$$

ABBREVIATIONS USED IN REMARKS
   TC - TEMPERATURE IN CELSIUS
  WCI - WIND CHILL INDEX
   HX - HEAT INDEX
  VSB - VISIBILITY




USA.gov is the U.S. government's official web portal to all federal, state and local government web resources and services.